Wind_Speed
49 50 50 49 49 50 50 50 51 52 52 53 53 53 53 52 52 50 49 47 46 45 44 43 42 41 40 40 41 41 41 39 40 42 43 43 43 44 44 41 38 36
44 45 45 46 46 46 47 47 47 48 48 49 48 48 48 48 47 47 46 44 44 43 43 42 41 40 40 39 40 40 39 38 38 40 41 41 41 41 41 38 36 32
41 41 42 42 43 43 44 44 44 44 45 46 46 46 46 46 45 44 43 42 42 42 42 42 41 40 40 39 38 38 38 37 36 38 39 39 39 39 37 34 31 26
39 39 40 40 41 41 42 42 42 43 43 44 45 44 44 44 43 42 42 42 42 43 43 43 42 41 40 39 38 38 37 36 35 36 37 37 37 37 34 30 25 18
38 38 38 39 39 40 40 40 40 41 42 42 42 42 42 42 42 42 43 43 44 45 44 44 42 41 40 39 38 37 36 35 34 35 35 35 35 35 32 27 20 13
37 37 38 38 39 39 39 39 39 40 40 40 41 41 42 42 43 44 44 45 45 44 43 41 40 39 39 39 39 38 36 35 34 34 34 33 33 32 31 25 17 12
37 37 38 38 39 39 39 39 39 40 40 41 42 42 43 44 44 44 44 44 43 41 39 38 37 37 38 38 39 38 37 35 34 33 32 32 31 30 29 26 18 14
37 38 38 39 39 40 40 40 40 41 41 42 43 43 44 44 44 44 43 41 39 37 36 35 36 36 36 37 39 39 37 36 35 34 32 31 30 29 28 26 21 18
38 39 39 40 40 40 41 41 42 42 42 43 43 43 43 44 44 44 42 41 39 37 37 37 37 37 37 37 38 39 38 36 35 35 33 31 30 29 28 26 24 22
39 40 41 42 42 42 42 42 42 42 42 43 43 43 44 45 45 45 43 42 41 41 41 40 40 39 39 38 38 39 38 37 36 36 35 32 30 29 28 27 25 24
40 41 42 43 43 43 43 42 42 42 43 44 44 45 46 47 47 46 45 45 45 45 44 44 43 42 41 40 39 39 39 38 37 36 36 35 32 30 29 27 26 26
41 42 43 44 44 44 43 43 43 44 45 46 47 48 48 49 49 48 47 47 48 47 46 45 44 43 42 42 41 40 39 39 38 37 37 37 35 33 31 29 28 27
42 44 44 45 45 44 45 45 46 47 47 48 49 49 50 50 50 50 49 49 49 48 48 46 45 44 43 43 42 41 40 40 39 39 39 39 38 37 34 32 30 29
44 45 46 46 46 47 47 48 48 49 49 50 50 51 52 52 52 52 51 50 50 49 49 48 47 46 45 43 43 42 42 41 40 40 40 40 40 40 38 36 34 32
46 47 47 48 48 49 49 49 49 50 51 52 52 53 54 54 54 53 52 51 51 50 50 50 49 48 46 43 42 42 42 42 42 42 42 42 42 42 42 40 39 37
48 49 49 50 50 50 51 51 51 52 53 54 54 55 55 55 55 54 53 52 52 51 51 51 49 48 46 44 42 41 41 42 43 43 43 44 44 44 44 44 43 41
50 50 51 51 52 53 53 53 53 54 55 55 56 56 56 56 55 54 53 52 52 51 51 51 50 48 47 45 43 42 41 42 43 44 45 45 46 46 46 46 46 45
51 52 53 54 54 55 55 55 55 56 57 57 57 56 56 56 55 54 53 53 52 52 52 51 51 50 49 47 45 44 43 43 43 45 46 47 47 47 48 48 48 48
53 54 56 56 57 57 57 57 57 58 58 58 57 57 57 56 55 54 53 52 52 52 53 53 53 53 52 50 49 49 48 46 45 45 46 47 48 48 49 49 50 50
56 57 58 58 58 59 59 59 59 59 59 59 58 57 56 55 54 54 53 52 52 53 54 54 55 55 55 54 53 52 52 50 49 47 46 46 47 48 49 50 50 51
58 59 59 60 60 61 61 61 61 61 60 59 58 57 55 54 54 53 53 52 53 54 55 56 57 57 57 56 55 53 52 51 51 50 50 49 48 48 49 50 50 51
60 61 61 61 62 63 62 62 62 61 60 59 58 56 54 53 53 53 53 53 54 56 57 58 59 58 58 57 56 55 53 52 51 52 52 51 51 50 50 50 51 51
62 63 63 63 64 64 63 62 61 60 59 57 55 53 53 52 52 53 53 54 56 57 58 59 59 59 58 58 57 56 54 53 52 52 52 53 53 53 53 53 53 53
64 64 64 64 64 63 62 61 60 58 56 54 52 52 52 52 53 53 55 56 57 59 60 60 59 58 58 57 57 57 56 55 54 54 53 54 54 55 56 56 56 56
63 62 62 61 60 59 58 57 56 54 52 51 51 51 52 53 54 55 56 58 59 60 60 60 58 58 58 58 59 58 58 57 56 55 55 55 55 55 56 57 58 59
58 58 57 56 55 54 54 53 52 51 50 50 51 52 53 54 56 57 58 59 60 60 60 59 58 59 59 60 60 60 59 58 57 56 56 56 56 56 56 57 58 59
Wind_Direction
278 280 281 282 283 284 285 286 286 287 287 287 287 288 289 290 292 293 295 296 297 298 299 300 301 301 301 302 302 302 302 302 302 305 309 314 317 319 319 321 323 322
279 280 281 282 283 285 286 287 287 288 288 288 289 290 291 292 293 294 295 296 297 298 300 300 300 300 301 301 300 300 301 301 302 304 309 314 318 320 320 322 326 325
279 281 282 282 283 285 285 286 287 288 288 289 290 291 292 293 294 295 296 298 299 299 300 300 300 300 300 300 299 299 299 300 301 303 309 313 318 320 320 322 325 324
279 280 281 282 283 284 285 286 287 288 288 289 291 292 293 294 295 297 298 299 299 299 299 299 299 298 298 298 297 297 297 298 299 302 307 311 316 319 319 320 321 321
278 279 280 281 283 284 285 286 287 288 289 290 291 293 294 295 297 298 299 299 299 298 298 298 297 296 296 295 295 294 294 295 296 299 303 308 314 317 316 316 312 308
278 280 281 282 284 285 286 286 287 288 289 291 293 295 296 298 299 299 299 299 299 299 298 298 297 295 294 293 293 293 291 292 293 295 300 305 310 314 314 310 300 282
280 281 282 284 284 285 286 287 288 289 291 293 294 296 297 298 299 299 300 300 300 300 300 300 298 296 295 293 292 291 290 289 290 292 296 301 306 311 311 306 290 266
280 282 283 285 285 286 286 287 289 291 293 294 295 296 297 298 299 300 301 301 302 301 302 303 302 300 297 295 293 291 289 287 287 288 291 295 301 306 308 303 286 261
280 282 283 284 284 285 286 288 291 293 295 296 296 296 297 298 299 299 300 300 301 301 302 304 305 303 301 298 295 293 289 285 284 285 287 290 294 299 302 301 287 263
280 281 282 283 284 285 287 290 292 294 295 296 295 295 296 298 299 298 297 298 299 300 302 303 304 304 303 301 298 296 292 285 281 281 283 285 288 291 295 297 291 270
279 280 282 283 284 286 288 289 291 293 295 295 295 295 296 297 298 297 295 296 297 299 301 302 302 302 302 301 299 297 294 288 282 278 279 281 282 285 287 290 290 279
279 280 281 283 284 285 286 287 289 292 293 294 294 295 296 297 297 296 295 295 297 298 300 301 301 301 300 299 298 296 294 291 285 279 276 277 278 279 281 282 284 282
278 279 280 281 283 284 285 287 289 291 293 294 295 295 295 296 296 295 295 296 298 299 300 301 301 300 298 297 295 293 292 291 287 281 277 275 275 275 276 276 276 277
277 278 279 280 281 282 285 287 289 291 293 294 295 295 296 296 296 296 297 298 299 300 301 302 301 300 298 295 292 290 289 288 287 283 280 276 273 272 272 272 272 271
275 276 277 278 280 282 285 288 290 292 294 295 296 296 296 297 297 297 298 299 300 301 302 303 303 302 300 296 291 287 286 285 285 283 281 278 275 272 270 270 269 268
274 275 276 277 280 283 286 289 291 293 294 296 296 297 297 298 298 298 298 299 300 301 302 304 305 305 303 300 295 289 285 283 282 282 281 279 277 275 272 269 267 266
275 275 276 278 281 285 287 289 291 293 295 296 297 297 298 298 297 297 298 299 300 301 303 304 305 306 306 303 299 294 289 284 281 280 280 279 277 276 275 272 268 265
276 276 277 280 283 286 288 290 292 293 295 296 296 297 297 297 296 297 297 298 300 301 302 304 304 305 304 303 302 299 295 289 284 281 279 278 277 276 274 273 270 267
278 278 279 282 284 286 288 289 291 293 294 295 295 296 296 295 295 296 297 298 299 300 302 303 303 303 302 301 300 299 297 294 290 285 281 278 276 275 274 272 270 268
278 279 281 283 284 286 287 289 290 292 293 294 294 295 295 294 294 295 296 297 298 299 301 302 303 303 302 300 298 298 296 294 292 289 286 282 279 276 274 273 271 269
279 280 282 283 284 285 287 288 290 291 292 293 294 294 293 293 293 294 295 296 297 298 300 301 303 302 301 299 298 297 295 293 291 289 288 286 283 280 276 274 272 270
279 280 282 284 284 286 287 289 290 291 292 292 293 292 292 292 292 293 294 295 296 298 300 301 302 301 300 298 297 297 295 293 291 289 287 286 285 283 280 277 275 272
280 282 283 284 285 287 288 289 290 290 291 291 291 291 291 291 292 292 293 294 296 298 300 301 301 299 298 298 298 297 296 295 292 290 288 286 284 283 281 280 278 276
282 283 284 285 286 287 288 289 289 290 290 290 289 289 290 290 291 292 292 294 296 298 300 300 299 298 298 298 299 299 298 296 294 292 289 287 284 282 281 279 278 277
283 284 285 285 287 287 288 288 289 289 288 288 289 289 289 290 290 291 292 294 297 298 299 299 299 298 298 299 300 300 299 297 295 292 290 288 285 283 282 280 279 278
284 284 285 286 287 287 287 288 288 287 287 288 288 289 289 289 290 291 293 296 297 298 298 298 298 299 299 299 300 300 299 297 294 292 290 289 287 285 283 282 281 279
Height
10689 10688 10688 10688 10687 10686 10686 10685 10684 10684 10683 10682 10681 10680 10680 10678 10677 10675 10674 10672 10670 10668 10667 10666 10665 10663 10661 10660 10657 10655 10654 10652 10649 10646 10643 10641 10638 10634 10629 10624 10620 10616
10684 10684 10683 10683 10682 10682 10681 10681 10680 10679 10678 10677 10676 10675 10675 10673 10672 10671 10669 10668 10666 10664 10663 10662 10660 10658 10657 10655 10653 10651 10649 10648 10645 10642 10640 10637 10634 10631 10626 10622 10618 10614
10680 10679 10679 10679 10678 10678 10677 10677 10676 10675 10674 10672 10671 10671 10670 10669 10668 10666 10665 10664 10662 10660 10659 10657 10656 10654 10652 10650 10649 10647 10645 10643 10641 10639 10636 10634 10631 10628 10624 10620 10617 10614
10676 10676 10675 10675 10675 10674 10674 10673 10672 10671 10669 10668 10667 10667 10666 10664 10663 10662 10661 10659 10658 10656 10655 10653 10651 10649 10647 10646 10644 10643 10641 10639 10637 10635 10633 10631 10628 10625 10622 10619 10617 10615
10673 10672 10672 10671 10671 10670 10669 10669 10668 10666 10665 10664 10663 10663 10662 10660 10659 10658 10656 10655 10653 10652 10650 10648 10646 10644 10643 10641 10640 10638 10636 10635 10633 10631 10630 10628 10626 10623 10620 10618 10616 10615
10669 10668 10667 10667 10666 10666 10665 10664 10663 10662 10662 10661 10660 10659 10657 10656 10654 10653 10652 10651 10649 10647 10645 10643 10641 10639 10638 10636 10635 10633 10631 10631 10629 10628 10626 10625 10623 10621 10618 10616 10615 10614
10664 10664 10663 10663 10662 10662 10661 10660 10659 10659 10658 10657 10656 10654 10653 10652 10650 10649 10648 10646 10644 10642 10640 10638 10636 10635 10633 10632 10630 10628 10627 10626 10625 10624 10623 10621 10620 10618 10616 10614 10613 10612
10660 10660 10659 10659 10658 10658 10657 10656 10655 10655 10654 10653 10651 10650 10649 10647 10646 10645 10643 10641 10639 10637 10635 10634 10632 10630 10629 10627 10625 10624 10622 10621 10620 10620 10619 10618 10617 10615 10613 10612 10611 10610
10656 10656 10655 10655 10654 10654 10653 10652 10651 10650 10649 10648 10647 10646 10644 10643 10641 10640 10638 10637 10635 10633 10631 10630 10628 10625 10624 10622 10621 10619 10618 10617 10616 10615 10615 10614 10613 10612 10610 10609 10608 10607
10652 10652 10651 10650 10650 10649 10649 10648 10647 10646 10645 10644 10642 10641 10640 10638 10637 10635 10633 10632 10630 10628 10627 10625 10623 10621 10619 10617 10616 10614 10613 10612 10611 10610 10610 10609 10609 10608 10607 10606 10604 10603
10649 10648 10647 10646 10646 10645 10644 10643 10642 10641 10640 10639 10638 10636 10634 10633 10631 10630 10628 10626 10625 10623 10621 10620 10618 10616 10614 10613 10611 10609 10608 10607 10606 10605 10605 10604 10604 10604 10603 10602 10601 10600
10644 10643 10642 10641 10641 10640 10639 10638 10637 10636 10635 10634 10632 10631 10629 10628 10626 10624 10623 10621 10619 10617 10616 10615 10613 10611 10609 10607 10606 10604 10603 10602 10601 10600 10600 10599 10599 10599 10599 10598 10597 10596
10640 10638 10637 10637 10636 10635 10634 10633 10633 10631 10630 10628 10627 10625 10624 10622 10621 10619 10617 10615 10613 10612 10610 10609 10607 10605 10604 10602 10600 10599 10597 10596 10595 10595 10594 10594 10593 10593 10593 10593 10592 10591
10635 10634 10632 10632 10631 10630 10629 10628 10627 10626 10625 10623 10622 10620 10618 10616 10615 10613 10611 10609 10607 10605 10604 10603 10601 10599 10597 10596 10594 10592 10591 10590 10589 10589 10588 10588 10587 10587 10587 10587 10587 10586
10630 10628 10627 10627 10626 10625 10624 10623 10622 10620 10619 10618 10616 10614 10612 10610 10608 10606 10604 10603 10601 10599 10598 10596 10594 10593 10591 10589 10588 10586 10585 10584 10583 10582 10582 10581 10581 10580 10580 10580 10580 10580
10624 10623 10622 10621 10620 10619 10619 10618 10616 10615 10613 10612 10610 10608 10606 10604 10601 10599 10598 10596 10595 10593 10591 10589 10587 10586 10584 10582 10581 10580 10579 10578 10577 10576 10575 10574 10574 10573 10573 10573 10573 10573
10619 10618 10616 10615 10615 10614 10613 10612 10610 10609 10607 10606 10604 10602 10599 10597 10595 10593 10591 10589 10588 10586 10584 10583 10581 10579 10578 10576 10574 10573 10572 10571 10570 10569 10568 10568 10567 10566 10566 10565 10565 10565
10613 10612 10611 10610 10609 10608 10607 10606 10604 10603 10601 10599 10597 10595 10593 10591 10588 10587 10585 10583 10582 10580 10578 10576 10575 10573 10572 10570 10568 10567 10565 10564 10563 10562 10561 10560 10559 10559 10558 10558 10557 10557
10607 10606 10605 10604 10604 10602 10601 10600 10598 10596 10595 10593 10591 10589 10587 10584 10582 10580 10579 10577 10575 10573 10572 10570 10568 10567 10566 10564 10562 10561 10559 10557 10556 10555 10554 10553 10552 10551 10550 10550 10549 10549
10601 10600 10599 10598 10597 10596 10595 10594 10592 10590 10589 10587 10585 10582 10580 10578 10576 10574 10572 10571 10569 10567 10565 10564 10562 10561 10559 10557 10556 10554 10552 10550 10549 10547 10546 10545 10544 10543 10542 10541 10541 10540
10594 10594 10593 10592 10591 10590 10588 10587 10586 10584 10582 10580 10578 10576 10574 10572 10570 10568 10566 10564 10562 10561 10559 10557 10556 10554 10552 10550 10548 10547 10545 10543 10541 10540 10538 10537 10536 10535 10534 10533 10532 10532
10588 10587 10587 10586 10584 10583 10582 10581 10579 10577 10575 10573 10571 10569 10567 10565 10564 10562 10560 10558 10556 10554 10553 10551 10550 10548 10545 10543 10541 10539 10537 10536 10534 10532 10531 10529 10528 10526 10525 10524 10523 10523
10582 10581 10580 10579 10577 10576 10575 10574 10572 10570 10568 10566 10564 10562 10561 10559 10557 10555 10554 10552 10550 10548 10547 10545 10543 10541 10538 10536 10534 10532 10530 10528 10526 10524 10523 10521 10519 10518 10517 10515 10514 10513
10575 10574 10573 10571 10570 10570 10569 10567 10565 10563 10561 10559 10557 10556 10554 10553 10551 10549 10547 10545 10544 10542 10541 10539 10536 10534 10531 10528 10526 10524 10522 10520 10518 10516 10514 10512 10511 10509 10508 10506 10505 10504
10568 10567 10565 10564 10564 10563 10562 10560 10558 10556 10554 10553 10551 10550 10548 10546 10544 10542 10541 10539 10538 10536 10534 10532 10529 10526 10524 10521 10519 10516 10514 10512 10510 10508 10506 10504 10502 10500 10499 10497 10495 10494
10561 10559 10558 10558 10557 10556 10555 10553 10551 10550 10548 10547 10545 10543 10542 10540 10538 10536 10534 10533 10531 10529 10527 10525 10522 10519 10516 10513 10511 10508 10506 10503 10501 10499 10497 10495 10493 10491 10490 10488 10486 10484